AAL177 KJFK-KSFO

Flight info

Callsign AAL177
Flight time 5h 51m
Altitude 34000
Route GAYEL Q818 WOZEE Q935 HOCKE GRB GEP ABR J32 LLC LEGGS BDEGA4
Aircraft A320/M-SDE3FGHIRWY/LB1

Departure

Time 2026-05-07 08:52
Airport John F. Kennedy International Airport (KJFK)

Arrival

Time 2026-05-07 14:44
Airport San Francisco International Airport (KSFO)
Time Latitude Longitude Altitude Speed Heading
2026-05-07 08:36 40.63549 -73.78113 23 ft 0 kts 83°
2026-05-07 08:42 40.63548 -73.78134 23 ft 2 kts 83°
2026-05-07 08:42 40.63546 -73.78162 23 ft 4 kts 102°
2026-05-07 08:42 40.63557 -73.78194 26 ft 4 kts 125°
2026-05-07 08:43 40.63572 -73.78221 24 ft 4 kts 128°
2026-05-07 08:43 40.63590 -73.78246 26 ft 4 kts 153°
2026-05-07 08:43 40.63611 -73.78253 26 ft 4 kts 173°
2026-05-07 08:43 40.63622 -73.78255 25 ft 0 kts 173°
2026-05-07 08:49 40.63610 -73.78254 26 ft 5 kts 174°
2026-05-07 08:49 40.63568 -73.78262 25 ft 6 kts 200°
2026-05-07 08:49 40.63546 -73.78277 25 ft 1 kts 209°
2026-05-07 08:49 40.63523 -73.78296 27 ft 11 kts 212°
2026-05-07 08:50 40.63453 -73.78323 25 ft 10 kts 152°
2026-05-07 08:50 40.63416 -73.78257 27 ft 8 kts 121°
2026-05-07 08:50 40.63376 -73.78234 29 ft 6 kts 191°
2026-05-07 08:50 40.63332 -73.78275 26 ft 9 kts 229°
2026-05-07 08:51 40.63344 -73.78376 23 ft 14 kts 302°
2026-05-07 08:51 40.63424 -73.78552 23 ft 45 kts 301°
2026-05-07 08:51 40.63681 -73.79119 22 ft 97 kts 301°
2026-05-07 08:51 40.64099 -73.80040 26 ft 138 kts 301°
2026-05-07 08:52 40.64640 -73.81254 285 ft 150 kts 302°
2026-05-07 08:52 40.65154 -73.82392 952 ft 146 kts 304°
2026-05-07 08:52 40.65680 -73.83545 1481 ft 148 kts 305°
2026-05-07 08:52 40.66341 -73.84583 1817 ft 155 kts 330°
2026-05-07 08:53 40.67367 -73.85260 1985 ft 176 kts 333°
2026-05-07 08:53 40.68528 -73.86027 2200 ft 196 kts 333°
2026-05-07 08:53 40.69803 -73.86881 2460 ft 214 kts 332°
2026-05-07 08:53 40.71174 -73.87806 2848 ft 232 kts 332°
2026-05-07 08:54 40.72646 -73.88804 3425 ft 242 kts 330°
2026-05-07 08:54 40.74156 -73.89835 4179 ft 247 kts 328°
2026-05-07 08:54 40.75697 -73.90884 4909 ft 252 kts 327°
2026-05-07 08:54 40.77263 -73.91950 5646 ft 256 kts 325°
2026-05-07 08:55 40.78859 -73.93040 6385 ft 260 kts 323°
2026-05-07 08:55 40.80476 -73.94150 7049 ft 264 kts 323°
2026-05-07 08:55 40.82128 -73.95287 7698 ft 270 kts 323°
2026-05-07 08:55 40.83808 -73.96442 8354 ft 275 kts 323°
2026-05-07 08:56 40.85523 -73.97615 9003 ft 280 kts 323°
2026-05-07 08:56 40.87245 -73.98790 9707 ft 284 kts 321°
2026-05-07 08:56 40.89016 -74.00007 10195 ft 294 kts 321°
2026-05-07 08:56 40.90895 -74.01316 10340 ft 316 kts 321°
2026-05-07 08:57 40.92906 -74.02723 10514 ft 336 kts 322°
2026-05-07 08:57 40.95005 -74.04168 10989 ft 343 kts 322°
2026-05-07 08:57 40.97143 -74.05621 11561 ft 348 kts 323°
2026-05-07 08:57 40.99310 -74.07089 12164 ft 351 kts 323°
2026-05-07 08:58 41.01496 -74.08578 12765 ft 354 kts 322°
2026-05-07 08:58 41.03701 -74.10088 13325 ft 359 kts 322°
2026-05-07 08:58 41.05930 -74.11621 13873 ft 363 kts 322°
2026-05-07 08:58 41.08176 -74.13170 14416 ft 365 kts 322°
2026-05-07 08:59 41.10434 -74.14728 14999 ft 367 kts 321°
2026-05-07 08:59 41.12703 -74.16295 15588 ft 368 kts 321°
2026-05-07 08:59 41.14974 -74.17865 16173 ft 369 kts 321°
2026-05-07 08:59 41.17252 -74.19439 16767 ft 370 kts 321°
2026-05-07 09:00 41.19533 -74.21018 17356 ft 371 kts 321°
2026-05-07 09:00 41.21825 -74.22604 17944 ft 372 kts 321°
2026-05-07 09:00 41.24124 -74.24199 18462 ft 374 kts 320°
2026-05-07 09:00 41.26437 -74.25806 19012 ft 375 kts 320°
2026-05-07 09:01 41.28752 -74.27411 19566 ft 376 kts 320°
2026-05-07 09:01 41.31044 -74.29003 20107 ft 377 kts 319°
2026-05-07 09:01 41.33369 -74.30626 20694 ft 378 kts 319°
2026-05-07 09:01 41.35708 -74.32257 21194 ft 380 kts 319°
2026-05-07 09:02 41.38029 -74.33940 21655 ft 375 kts 314°
2026-05-07 09:02 41.40061 -74.35997 22181 ft 360 kts 303°
2026-05-07 09:02 41.41717 -74.38401 22647 ft 347 kts 295°
2026-05-07 09:02 41.42998 -74.41059 23111 ft 338 kts 288°
2026-05-07 09:03 41.44166 -74.43783 23575 ft 339 kts 288°
2026-05-07 09:03 41.45340 -74.46505 23961 ft 339 kts 288°
2026-05-07 09:03 41.46520 -74.49236 24343 ft 340 kts 288°
2026-05-07 09:03 41.47701 -74.51968 24732 ft 341 kts 288°
2026-05-07 09:04 41.48884 -74.54706 25092 ft 341 kts 288°
2026-05-07 09:04 41.50074 -74.57451 25458 ft 342 kts 288°
2026-05-07 09:04 41.51266 -74.60198 25781 ft 342 kts 288°
2026-05-07 09:04 41.52457 -74.62950 26117 ft 343 kts 288°
2026-05-07 09:05 41.53650 -74.65715 26497 ft 344 kts 287°
2026-05-07 09:05 41.54842 -74.68485 26801 ft 345 kts 288°
2026-05-07 09:05 41.56038 -74.71265 27167 ft 345 kts 288°
2026-05-07 09:05 41.57235 -74.74054 27523 ft 346 kts 288°
2026-05-07 09:06 41.58417 -74.76815 27873 ft 346 kts 287°
2026-05-07 09:06 41.59612 -74.79599 28362 ft 343 kts 287°
2026-05-07 09:06 41.60796 -74.82351 28937 ft 340 kts 287°
2026-05-07 09:06 41.61969 -74.85074 29489 ft 336 kts 287°
2026-05-07 09:07 41.63122 -74.87760 30036 ft 332 kts 286°
2026-05-07 09:07 41.64261 -74.90428 30479 ft 328 kts 286°
2026-05-07 09:07 41.65386 -74.93071 30897 ft 326 kts 286°
2026-05-07 09:07 41.66503 -74.95691 31298 ft 323 kts 286°
2026-05-07 09:08 41.67612 -74.98298 31699 ft 321 kts 286°
2026-05-07 09:08 41.68711 -75.00887 32118 ft 319 kts 286°
2026-05-07 09:08 41.69802 -75.03459 32526 ft 317 kts 286°
2026-05-07 09:08 41.70886 -75.06016 32954 ft 315 kts 285°
2026-05-07 09:09 41.71961 -75.08554 33372 ft 313 kts 285°
2026-05-07 09:09 41.73030 -75.11074 33790 ft 310 kts 285°
2026-05-07 09:09 41.74094 -75.13589 33932 ft 311 kts 285°
2026-05-07 09:09 41.75167 -75.16145 33951 ft 317 kts 285°
2026-05-07 09:10 41.77350 -75.21347 33954 ft 322 kts 285°
2026-05-07 09:10 41.79561 -75.26574 33953 ft 323 kts 286°
2026-05-07 09:11 41.81766 -75.31786 33951 ft 323 kts 285°
2026-05-07 09:11 41.83976 -75.37028 33957 ft 323 kts 286°
2026-05-07 09:12 41.86177 -75.42276 33962 ft 323 kts 285°
2026-05-07 09:12 41.88376 -75.47527 33998 ft 322 kts 285°
2026-05-07 09:13 41.90578 -75.52769 33989 ft 321 kts 285°
2026-05-07 09:13 41.92757 -75.58002 33979 ft 320 kts 285°
2026-05-07 09:14 41.94922 -75.63199 33973 ft 321 kts 285°
2026-05-07 09:14 41.97098 -75.68426 33976 ft 320 kts 285°
2026-05-07 09:15 41.99268 -75.73652 33974 ft 320 kts 285°
2026-05-07 09:15 42.01433 -75.78879 34022 ft 320 kts 285°
2026-05-07 09:16 42.03589 -75.84070 33974 ft 317 kts 285°
2026-05-07 09:16 42.05729 -75.89253 33972 ft 317 kts 285°
2026-05-07 09:17 42.07861 -75.94437 33971 ft 317 kts 285°
2026-05-07 09:17 42.10000 -75.99628 33970 ft 317 kts 285°
2026-05-07 09:18 42.12142 -76.04824 33971 ft 317 kts 285°
2026-05-07 09:18 42.14274 -76.10027 33972 ft 317 kts 285°
2026-05-07 09:19 42.16279 -76.15274 34019 ft 310 kts 281°
2026-05-07 09:19 42.17975 -76.20568 34006 ft 309 kts 281°
2026-05-07 09:20 42.19688 -76.25906 33993 ft 310 kts 281°
2026-05-07 09:20 42.21411 -76.31265 33977 ft 312 kts 281°
2026-05-07 09:21 42.23133 -76.36635 33988 ft 312 kts 281°
2026-05-07 09:21 42.24854 -76.42033 33979 ft 313 kts 281°
2026-05-07 09:22 42.26578 -76.47434 33969 ft 313 kts 281°
2026-05-07 09:22 42.28287 -76.52805 34004 ft 314 kts 281°
2026-05-07 09:23 42.30009 -76.58245 33988 ft 316 kts 281°
2026-05-07 09:23 42.31737 -76.63715 33984 ft 316 kts 281°
2026-05-07 09:24 42.33467 -76.69193 33984 ft 317 kts 281°
2026-05-07 09:24 42.35205 -76.74677 33984 ft 317 kts 281°
2026-05-07 09:25 42.36931 -76.80169 33984 ft 317 kts 281°
2026-05-07 09:25 42.38656 -76.85670 33993 ft 318 kts 281°
2026-05-07 09:26 42.40384 -76.91190 33999 ft 319 kts 281°
2026-05-07 09:26 42.42102 -76.96693 33994 ft 320 kts 282°
2026-05-07 09:27 42.43850 -77.02289 33988 ft 321 kts 282°
2026-05-07 09:28 42.46448 -77.10621 33983 ft 322 kts 281°
2026-05-07 09:28 42.48185 -77.16206 33991 ft 322 kts 281°
2026-05-07 09:29 42.49911 -77.21794 33985 ft 322 kts 281°
2026-05-07 09:29 42.51649 -77.27440 33998 ft 327 kts 282°
2026-05-07 09:30 42.53425 -77.33187 33994 ft 333 kts 282°
2026-05-07 09:30 42.55216 -77.39014 33989 ft 337 kts 282°
2026-05-07 09:31 42.57018 -77.44887 33980 ft 338 kts 282°
2026-05-07 09:31 42.58829 -77.50800 33977 ft 339 kts 282°
2026-05-07 09:32 42.60630 -77.56693 33982 ft 340 kts 282°
2026-05-07 09:32 42.62442 -77.62629 34005 ft 341 kts 282°
2026-05-07 09:33 42.64259 -77.68605 33983 ft 344 kts 282°
2026-05-07 09:33 42.66081 -77.74620 33979 ft 345 kts 282°
2026-05-07 09:34 42.67825 -77.80679 33986 ft 344 kts 281°
2026-05-07 09:34 42.69217 -77.85739 33992 ft 344 kts 281°
2026-05-07 09:35 42.70896 -77.91835 33996 ft 344 kts 281°
2026-05-07 09:35 42.72587 -77.97934 34013 ft 345 kts 282°
2026-05-07 09:36 42.74290 -78.04049 34002 ft 346 kts 282°
2026-05-07 09:36 42.75995 -78.10190 33996 ft 347 kts 281°
2026-05-07 09:37 42.77684 -78.16293 33995 ft 347 kts 281°
2026-05-07 09:37 42.79380 -78.22447 33993 ft 347 kts 281°
2026-05-07 09:38 42.81072 -78.28604 33988 ft 347 kts 281°
2026-05-07 09:38 42.82757 -78.34758 33987 ft 347 kts 281°
2026-05-07 09:39 42.84441 -78.40924 34027 ft 349 kts 282°
2026-05-07 09:39 42.86126 -78.47135 33990 ft 350 kts 282°
2026-05-07 09:40 42.87822 -78.53374 33979 ft 351 kts 282°
2026-05-07 09:40 42.89526 -78.59627 33965 ft 352 kts 282°
2026-05-07 09:41 42.91217 -78.65861 33964 ft 353 kts 282°
2026-05-07 09:41 42.92914 -78.72141 33987 ft 353 kts 282°
2026-05-07 09:42 42.93962 -78.78574 33988 ft 346 kts 274°
2026-05-07 09:42 42.94761 -78.85056 33986 ft 347 kts 274°
2026-05-07 09:43 42.95551 -78.91551 33986 ft 347 kts 274°
2026-05-07 09:43 42.96306 -78.98054 33984 ft 345 kts 272°
2026-05-07 09:44 42.96744 -79.04557 33985 ft 343 kts 269°
2026-05-07 09:44 42.97053 -79.11069 34013 ft 344 kts 269°
2026-05-07 09:45 42.97384 -79.17598 34014 ft 344 kts 270°
2026-05-07 09:45 42.97748 -79.24122 34008 ft 345 kts 270°
2026-05-07 09:46 42.98116 -79.30656 34008 ft 345 kts 270°
2026-05-07 09:46 42.98482 -79.37194 34008 ft 345 kts 270°
2026-05-07 09:47 42.98834 -79.43698 34029 ft 345 kts 270°
2026-05-07 09:47 42.99186 -79.50240 34020 ft 345 kts 270°
2026-05-07 09:48 42.99534 -79.56789 34014 ft 345 kts 270°
2026-05-07 09:48 42.99883 -79.63349 34010 ft 345 kts 270°
2026-05-07 09:49 43.00231 -79.69900 34007 ft 346 kts 270°
2026-05-07 09:49 43.00576 -79.76403 34007 ft 345 kts 270°
2026-05-07 09:50 43.00905 -79.82955 34020 ft 346 kts 270°
2026-05-07 09:50 43.01231 -79.89526 34003 ft 347 kts 270°
2026-05-07 09:51 43.01560 -79.96111 33997 ft 348 kts 270°
2026-05-07 09:51 43.01886 -80.02703 33995 ft 348 kts 270°
2026-05-07 09:52 43.02207 -80.09304 33995 ft 348 kts 270°
2026-05-07 09:52 43.02526 -80.15907 33996 ft 348 kts 269°
2026-05-07 09:53 43.02838 -80.22528 34012 ft 349 kts 270°
2026-05-07 09:53 43.03154 -80.29170 34004 ft 350 kts 270°
2026-05-07 09:54 43.03465 -80.35817 33999 ft 351 kts 270°
2026-05-07 09:54 43.03769 -80.42471 33998 ft 351 kts 270°
2026-05-07 09:55 43.04067 -80.49094 34002 ft 351 kts 269°
2026-05-07 09:55 43.04370 -80.55755 34017 ft 352 kts 270°
2026-05-07 09:56 43.04670 -80.62436 34004 ft 352 kts 270°
2026-05-07 09:56 43.04961 -80.69119 33987 ft 352 kts 269°
2026-05-07 09:57 43.05245 -80.75782 33999 ft 350 kts 269°
2026-05-07 09:57 43.05522 -80.82433 33997 ft 350 kts 269°
2026-05-07 09:58 43.05804 -80.89068 33993 ft 349 kts 269°
2026-05-07 09:58 43.06082 -80.95736 34210 ft 354 kts 269°
2026-05-07 09:58 43.06220 -80.99104 34427 ft 355 kts 269°
2026-05-07 09:59 43.06357 -81.02477 34650 ft 356 kts 269°
2026-05-07 09:59 43.06492 -81.05861 34872 ft 356 kts 269°
2026-05-07 09:59 43.06652 -81.09241 35088 ft 358 kts 274°
2026-05-07 09:59 43.07179 -81.12599 35305 ft 362 kts 278°
2026-05-07 10:00 43.07774 -81.15906 35494 ft 363 kts 278°
2026-05-07 10:00 43.08383 -81.19262 35702 ft 364 kts 278°
2026-05-07 10:00 43.08993 -81.22623 35895 ft 364 kts 278°
2026-05-07 10:01 43.10213 -81.29375 36006 ft 368 kts 278°
2026-05-07 10:01 43.11428 -81.36215 35977 ft 371 kts 278°
2026-05-07 10:02 43.12652 -81.43125 35982 ft 377 kts 278°
2026-05-07 10:02 43.13897 -81.50186 35987 ft 384 kts 278°
2026-05-07 10:03 43.15158 -81.57318 35991 ft 385 kts 278°
2026-05-07 10:03 43.16418 -81.64455 35991 ft 386 kts 278°
2026-05-07 10:04 43.17658 -81.71577 35989 ft 387 kts 278°
2026-05-07 10:04 43.18910 -81.78761 35991 ft 388 kts 278°
2026-05-07 10:05 43.20162 -81.85958 35992 ft 388 kts 278°
2026-05-07 10:05 43.21408 -81.93161 35995 ft 388 kts 278°
2026-05-07 10:06 43.22650 -82.00372 35995 ft 389 kts 278°
2026-05-07 10:06 43.23882 -82.07590 35996 ft 389 kts 278°
2026-05-07 10:07 43.25112 -82.14808 35996 ft 389 kts 278°
2026-05-07 10:07 43.26343 -82.22035 35997 ft 389 kts 278°
2026-05-07 10:08 43.27060 -82.29309 35999 ft 383 kts 267°
2026-05-07 10:08 43.26959 -82.36616 35999 ft 383 kts 266°
2026-05-07 10:09 43.26784 -82.43925 36014 ft 383 kts 266°
2026-05-07 10:09 43.26620 -82.51203 36014 ft 384 kts 266°
2026-05-07 10:10 43.26467 -82.58577 36009 ft 384 kts 266°
2026-05-07 10:10 43.26309 -82.65867 36008 ft 385 kts 266°
2026-05-07 10:11 43.26779 -82.73180 35999 ft 391 kts 282°
2026-05-07 10:11 43.28632 -82.80244 36014 ft 394 kts 284°
2026-05-07 10:12 43.30506 -82.87316 36008 ft 394 kts 284°
2026-05-07 10:12 43.32369 -82.94395 36006 ft 394 kts 284°
2026-05-07 10:13 43.34228 -83.01485 36007 ft 394 kts 284°
2026-05-07 10:13 43.36067 -83.08527 36006 ft 394 kts 284°
2026-05-07 10:14 43.37919 -83.15627 36004 ft 394 kts 284°
2026-05-07 10:14 43.39769 -83.22733 36010 ft 395 kts 284°
2026-05-07 10:15 43.41613 -83.29852 36005 ft 395 kts 284°
2026-05-07 10:15 43.43453 -83.36979 36008 ft 396 kts 284°
2026-05-07 10:16 43.45295 -83.44132 36000 ft 398 kts 284°
2026-05-07 10:16 43.47147 -83.51328 35990 ft 399 kts 284°
2026-05-07 10:17 43.48994 -83.58543 35986 ft 400 kts 284°
2026-05-07 10:17 43.50838 -83.65779 35987 ft 401 kts 284°
2026-05-07 10:18 43.52682 -83.73036 35994 ft 401 kts 284°
2026-05-07 10:18 43.54522 -83.80298 35994 ft 402 kts 284°
2026-05-07 10:19 43.56350 -83.87529 35998 ft 402 kts 284°
2026-05-07 10:19 43.58186 -83.94810 36013 ft 402 kts 284°
2026-05-07 10:20 43.60022 -84.02108 36004 ft 403 kts 284°
2026-05-07 10:20 43.61851 -84.09430 35999 ft 403 kts 284°
2026-05-07 10:21 43.63678 -84.16751 35996 ft 404 kts 284°
2026-05-07 10:21 43.65514 -84.24091 35997 ft 404 kts 284°
2026-05-07 10:22 43.67340 -84.31431 36009 ft 404 kts 284°
2026-05-07 10:22 43.69147 -84.38747 36016 ft 405 kts 284°
2026-05-07 10:23 43.70966 -84.46128 36020 ft 406 kts 284°
2026-05-07 10:23 43.72785 -84.53532 36010 ft 407 kts 284°
2026-05-07 10:24 43.74306 -84.59751 36008 ft 407 kts 284°
2026-05-07 10:24 43.76114 -84.67174 36004 ft 408 kts 285°
2026-05-07 10:25 43.77934 -84.74620 36004 ft 408 kts 284°
2026-05-07 10:25 43.79754 -84.82071 36003 ft 409 kts 284°
2026-05-07 10:26 43.81562 -84.89531 36007 ft 409 kts 284°
2026-05-07 10:26 43.83342 -84.96964 36008 ft 409 kts 284°
2026-05-07 10:27 43.85131 -85.04443 36019 ft 409 kts 284°
2026-05-07 10:27 43.86925 -85.11930 36026 ft 410 kts 284°
2026-05-07 10:28 43.88725 -85.19429 36020 ft 410 kts 284°
2026-05-07 10:28 43.90512 -85.26948 36020 ft 410 kts 284°
2026-05-07 10:29 43.92289 -85.34463 36012 ft 410 kts 284°
2026-05-07 10:29 43.94066 -85.41997 36035 ft 411 kts 284°
2026-05-07 10:30 43.96740 -85.53326 36019 ft 413 kts 284°
2026-05-07 10:30 43.98514 -85.60911 36014 ft 413 kts 284°
2026-05-07 10:31 44.00287 -85.68514 36021 ft 414 kts 284°
2026-05-07 10:31 44.02053 -85.76074 36022 ft 414 kts 284°
2026-05-07 10:32 44.03822 -85.83694 36025 ft 414 kts 284°
2026-05-07 10:32 44.05585 -85.91325 36022 ft 414 kts 284°
2026-05-07 10:33 44.07345 -85.98960 36019 ft 415 kts 284°
2026-05-07 10:33 44.09098 -86.06601 36018 ft 415 kts 284°
2026-05-07 10:34 44.10844 -86.14245 36015 ft 415 kts 284°
2026-05-07 10:34 44.12587 -86.21896 36025 ft 415 kts 284°
2026-05-07 10:35 44.14332 -86.29575 36020 ft 416 kts 284°
2026-05-07 10:35 44.16072 -86.37264 36017 ft 416 kts 284°
2026-05-07 10:36 44.17809 -86.44966 36030 ft 417 kts 284°
2026-05-07 10:36 44.19535 -86.52649 36021 ft 418 kts 284°
2026-05-07 10:37 44.21267 -86.60393 36021 ft 419 kts 284°
2026-05-07 10:37 44.23000 -86.68156 36019 ft 419 kts 284°
2026-05-07 10:38 44.24732 -86.75939 36020 ft 420 kts 284°
2026-05-07 10:38 44.26458 -86.83730 36021 ft 420 kts 284°
2026-05-07 10:39 44.28178 -86.91525 36022 ft 420 kts 284°
2026-05-07 10:39 44.29892 -86.99325 36031 ft 421 kts 284°
2026-05-07 10:40 44.31607 -87.07140 36027 ft 421 kts 284°
2026-05-07 10:40 44.33316 -87.14972 36026 ft 422 kts 284°
2026-05-07 10:41 44.35005 -87.22757 36029 ft 422 kts 284°
2026-05-07 10:41 44.36714 -87.30653 36028 ft 422 kts 284°
2026-05-07 10:42 44.38402 -87.38453 36029 ft 422 kts 284°
2026-05-07 10:42 44.40098 -87.46319 36049 ft 423 kts 284°
2026-05-07 10:43 44.41790 -87.54213 36046 ft 424 kts 284°
2026-05-07 10:43 44.43477 -87.62111 36045 ft 424 kts 284°
2026-05-07 10:44 44.45156 -87.70032 36034 ft 425 kts 284°
2026-05-07 10:44 44.46833 -87.77965 36037 ft 425 kts 284°
2026-05-07 10:45 44.48506 -87.85920 36037 ft 425 kts 284°
2026-05-07 10:45 44.50175 -87.93870 36034 ft 425 kts 284°
2026-05-07 10:46 44.51841 -88.01820 36033 ft 425 kts 284°
2026-05-07 10:46 44.53506 -88.09779 36024 ft 425 kts 284°
2026-05-07 10:47 44.55148 -88.17698 36013 ft 426 kts 284°
2026-05-07 10:47 44.56386 -88.25803 36013 ft 425 kts 279°
2026-05-07 10:48 44.57503 -88.33944 36019 ft 425 kts 279°
2026-05-07 10:48 44.58620 -88.42094 36029 ft 425 kts 279°
2026-05-07 10:49 44.59721 -88.50256 36027 ft 426 kts 279°
2026-05-07 10:49 44.60822 -88.58429 36041 ft 426 kts 279°
2026-05-07 10:50 44.61916 -88.66623 36029 ft 427 kts 279°
2026-05-07 10:50 44.63002 -88.74779 36027 ft 428 kts 279°
2026-05-07 10:51 44.64091 -88.82998 36022 ft 428 kts 279°
2026-05-07 10:51 44.65181 -88.91233 36023 ft 429 kts 279°
2026-05-07 10:52 44.66258 -88.99469 36028 ft 429 kts 279°
2026-05-07 10:52 44.67326 -89.07715 36035 ft 429 kts 279°
2026-05-07 10:53 44.68396 -89.15964 36039 ft 429 kts 279°
2026-05-07 10:53 44.69452 -89.24216 36031 ft 429 kts 279°
2026-05-07 10:54 44.70507 -89.32483 36025 ft 430 kts 279°
2026-05-07 10:54 44.71567 -89.40754 36030 ft 430 kts 279°
2026-05-07 10:55 44.72617 -89.49034 36009 ft 430 kts 279°
2026-05-07 10:55 44.73655 -89.57322 35999 ft 430 kts 279°
2026-05-07 10:56 44.74684 -89.65625 35996 ft 430 kts 279°
2026-05-07 10:56 44.75711 -89.73914 36006 ft 430 kts 279°
2026-05-07 10:57 44.76736 -89.82217 36012 ft 431 kts 279°
2026-05-07 10:57 44.77750 -89.90525 36011 ft 431 kts 279°
2026-05-07 10:58 44.78760 -89.98833 36028 ft 430 kts 279°
2026-05-07 10:58 44.79767 -90.07141 36010 ft 431 kts 279°
2026-05-07 10:59 44.80767 -90.15459 36018 ft 431 kts 279°
2026-05-07 10:59 44.81757 -90.23732 36021 ft 431 kts 279°
2026-05-07 11:00 44.82742 -90.32058 36020 ft 431 kts 279°
2026-05-07 11:00 44.83724 -90.40399 36024 ft 431 kts 279°
2026-05-07 11:01 44.84701 -90.48731 36033 ft 431 kts 279°
2026-05-07 11:01 44.85672 -90.57079 36044 ft 432 kts 279°
2026-05-07 11:02 44.86633 -90.65430 36036 ft 432 kts 278°
2026-05-07 11:02 44.87593 -90.73785 36040 ft 432 kts 278°
2026-05-07 11:03 44.88546 -90.82144 36038 ft 432 kts 279°
2026-05-07 11:03 44.89499 -90.90518 36035 ft 432 kts 279°
2026-05-07 11:04 44.90434 -90.98838 36037 ft 432 kts 278°
2026-05-07 11:04 44.91366 -91.07217 36034 ft 432 kts 278°
2026-05-07 11:05 44.92293 -91.15597 36020 ft 432 kts 279°
2026-05-07 11:05 44.93220 -91.23978 36020 ft 432 kts 279°
2026-05-07 11:06 44.94141 -91.32362 36022 ft 432 kts 278°
2026-05-07 11:06 44.95049 -91.40747 36021 ft 432 kts 278°
2026-05-07 11:07 44.95954 -91.49145 36023 ft 432 kts 278°
2026-05-07 11:07 44.96857 -91.57546 36023 ft 432 kts 279°
2026-05-07 11:08 44.97602 -91.64534 36023 ft 433 kts 278°
2026-05-07 11:08 44.98629 -91.74308 36041 ft 433 kts 278°
2026-05-07 11:09 44.99505 -91.82722 36031 ft 433 kts 278°
2026-05-07 11:09 45.00243 -91.89783 36054 ft 434 kts 278°
2026-05-07 11:10 45.01111 -91.98221 36045 ft 434 kts 279°
2026-05-07 11:10 45.01979 -92.06662 36044 ft 434 kts 279°
2026-05-07 11:11 45.02851 -92.15105 36043 ft 434 kts 279°
2026-05-07 11:11 45.03715 -92.23564 36041 ft 435 kts 278°
2026-05-07 11:12 45.04552 -92.32025 36021 ft 435 kts 278°
2026-05-07 11:12 45.05378 -92.40437 36026 ft 435 kts 278°
2026-05-07 11:13 45.06216 -92.48898 36026 ft 435 kts 278°
2026-05-07 11:13 45.07048 -92.57372 36029 ft 435 kts 278°
2026-05-07 11:14 45.07871 -92.65836 36031 ft 435 kts 278°
2026-05-07 11:14 45.08690 -92.74315 36030 ft 435 kts 279°
2026-05-07 11:15 45.09503 -92.82798 36038 ft 435 kts 278°
2026-05-07 11:15 45.10304 -92.91273 36032 ft 435 kts 278°
2026-05-07 11:16 45.11104 -92.99759 36028 ft 435 kts 278°
2026-05-07 11:16 45.11901 -93.08248 36002 ft 435 kts 279°
2026-05-07 11:17 45.12694 -93.16734 36013 ft 434 kts 279°
2026-05-07 11:17 45.13469 -93.25155 36019 ft 434 kts 278°
2026-05-07 11:18 45.14233 -93.33646 36021 ft 434 kts 278°
2026-05-07 11:18 45.14970 -93.42149 36031 ft 435 kts 278°
2026-05-07 11:19 45.15615 -93.50670 36030 ft 435 kts 277°
2026-05-07 11:19 45.16229 -93.59207 36035 ft 436 kts 277°
2026-05-07 11:20 45.16850 -93.67746 36040 ft 436 kts 277°
2026-05-07 11:20 45.17482 -93.76297 36032 ft 436 kts 277°
2026-05-07 11:21 45.18104 -93.84785 36013 ft 436 kts 277°
2026-05-07 11:21 45.18713 -93.93328 36034 ft 436 kts 277°
2026-05-07 11:22 45.19322 -94.01872 36038 ft 435 kts 277°
2026-05-07 11:22 45.19931 -94.10421 36040 ft 435 kts 277°
2026-05-07 11:23 45.20523 -94.18967 36047 ft 435 kts 277°
2026-05-07 11:23 45.21103 -94.27511 36031 ft 435 kts 277°
2026-05-07 11:24 45.21684 -94.36058 36031 ft 435 kts 277°
2026-05-07 11:24 45.22267 -94.44599 36029 ft 435 kts 277°
2026-05-07 11:25 45.22839 -94.53136 36028 ft 435 kts 277°
2026-05-07 11:25 45.23395 -94.61685 36033 ft 435 kts 277°
2026-05-07 11:26 45.23943 -94.70222 36019 ft 434 kts 277°
2026-05-07 11:26 45.24493 -94.78763 36026 ft 434 kts 277°
2026-05-07 11:27 45.25037 -94.87231 36031 ft 434 kts 277°
2026-05-07 11:27 45.25581 -94.95752 36028 ft 433 kts 277°
2026-05-07 11:28 45.26113 -95.04271 36011 ft 433 kts 277°
2026-05-07 11:28 45.26631 -95.12793 36017 ft 433 kts 277°
2026-05-07 11:29 45.27141 -95.21318 36028 ft 433 kts 278°
2026-05-07 11:29 45.27652 -95.29849 36029 ft 433 kts 278°
2026-05-07 11:30 45.28157 -95.38384 36033 ft 434 kts 277°
2026-05-07 11:30 45.28654 -95.46913 36029 ft 433 kts 278°
2026-05-07 11:31 45.29145 -95.55440 36044 ft 433 kts 278°
2026-05-07 11:31 45.29624 -95.63964 36012 ft 433 kts 278°
2026-05-07 11:32 45.30331 -95.76699 36009 ft 433 kts 278°
2026-05-07 11:33 45.30803 -95.85223 35996 ft 432 kts 278°
2026-05-07 11:33 45.31270 -95.93736 36005 ft 432 kts 278°
2026-05-07 11:34 45.31725 -96.02249 36005 ft 432 kts 278°
2026-05-07 11:34 45.32174 -96.10764 36008 ft 432 kts 278°
2026-05-07 11:35 45.32611 -96.19262 36022 ft 431 kts 278°
2026-05-07 11:35 45.33045 -96.27761 36002 ft 430 kts 278°
2026-05-07 11:36 45.33479 -96.36244 36013 ft 430 kts 278°
2026-05-07 11:36 45.33896 -96.44712 36015 ft 429 kts 278°
2026-05-07 11:37 45.34305 -96.53172 36014 ft 429 kts 278°
2026-05-07 11:37 45.34713 -96.61637 36022 ft 428 kts 278°
2026-05-07 11:38 45.35108 -96.70085 36035 ft 428 kts 278°
2026-05-07 11:38 45.35497 -96.78518 36041 ft 427 kts 278°
2026-05-07 11:39 45.35884 -96.86950 36039 ft 427 kts 278°
2026-05-07 11:39 45.36273 -96.95366 36038 ft 427 kts 278°
2026-05-07 11:40 45.36647 -97.03727 36013 ft 426 kts 278°
2026-05-07 11:40 45.37013 -97.12145 36020 ft 426 kts 278°
2026-05-07 11:41 45.37374 -97.20553 36002 ft 426 kts 278°
2026-05-07 11:41 45.37733 -97.28963 36012 ft 426 kts 278°
2026-05-07 11:42 45.38078 -97.37369 36011 ft 425 kts 278°
2026-05-07 11:42 45.38420 -97.45772 36012 ft 425 kts 278°
2026-05-07 11:43 45.38757 -97.54182 36015 ft 425 kts 278°
2026-05-07 11:43 45.39088 -97.62570 36366 ft 424 kts 278°
2026-05-07 11:43 45.39247 -97.66764 36584 ft 424 kts 278°
2026-05-07 11:44 45.39403 -97.70949 36783 ft 424 kts 278°
2026-05-07 11:44 45.39560 -97.75138 36972 ft 424 kts 277°
2026-05-07 11:44 45.39720 -97.79322 37142 ft 423 kts 278°
2026-05-07 11:44 45.39878 -97.83449 37353 ft 423 kts 277°
2026-05-07 11:45 45.40033 -97.87625 37545 ft 423 kts 277°
2026-05-07 11:45 45.40183 -97.91795 37720 ft 423 kts 277°
2026-05-07 11:45 45.40332 -97.95977 37896 ft 423 kts 277°
2026-05-07 11:46 45.40628 -98.04358 37973 ft 424 kts 277°
2026-05-07 11:46 45.40923 -98.12742 37970 ft 424 kts 277°
2026-05-07 11:47 45.41208 -98.21119 37969 ft 423 kts 277°
2026-05-07 11:47 45.41489 -98.29483 37961 ft 422 kts 277°
2026-05-07 11:48 45.41636 -98.37852 37967 ft 427 kts 269°
2026-05-07 11:48 45.40919 -98.46273 37987 ft 429 kts 268°
2026-05-07 11:49 45.40183 -98.54657 37993 ft 429 kts 268°
2026-05-07 11:49 45.39440 -98.63099 37975 ft 429 kts 268°
2026-05-07 11:50 45.38691 -98.71531 37988 ft 430 kts 268°
2026-05-07 11:50 45.37932 -98.79960 37996 ft 430 kts 268°
2026-05-07 11:51 45.37172 -98.88386 37995 ft 429 kts 268°
2026-05-07 11:51 45.36408 -98.96810 37965 ft 429 kts 268°
2026-05-07 11:52 45.35643 -99.05189 37976 ft 429 kts 268°
2026-05-07 11:52 45.34861 -99.13597 37989 ft 429 kts 268°
2026-05-07 11:53 45.34069 -99.22006 37986 ft 429 kts 268°
2026-05-07 11:53 45.33271 -99.30419 37981 ft 429 kts 268°
2026-05-07 11:54 45.32472 -99.38815 37962 ft 428 kts 268°
2026-05-07 11:54 45.31674 -99.47207 37977 ft 428 kts 268°
2026-05-07 11:55 45.31003 -99.54180 37984 ft 428 kts 268°
2026-05-07 11:55 45.30190 -99.62563 37984 ft 428 kts 268°
2026-05-07 11:56 45.29368 -99.70938 37957 ft 428 kts 268°
2026-05-07 11:56 45.28539 -99.79302 37976 ft 428 kts 268°
2026-05-07 11:57 45.27710 -99.87675 37982 ft 428 kts 268°
2026-05-07 11:57 45.26874 -99.96036 37981 ft 428 kts 268°
2026-05-07 11:58 45.26028 -100.04403 37982 ft 428 kts 267°
2026-05-07 11:58 45.25179 -100.12755 37955 ft 428 kts 267°
2026-05-07 11:59 45.24327 -100.21052 37970 ft 428 kts 267°
2026-05-07 11:59 45.23467 -100.29399 37968 ft 428 kts 267°
2026-05-07 12:00 45.22602 -100.37743 37962 ft 427 kts 267°
2026-05-07 12:00 45.21726 -100.46090 37921 ft 427 kts 267°
2026-05-07 12:01 45.20848 -100.54422 37952 ft 427 kts 267°
2026-05-07 12:01 45.19956 -100.62756 37959 ft 427 kts 267°
2026-05-07 12:02 45.19059 -100.71085 37969 ft 427 kts 267°
2026-05-07 12:02 45.18165 -100.79419 37972 ft 427 kts 267°
2026-05-07 12:03 45.17262 -100.87739 37939 ft 427 kts 266°
2026-05-07 12:03 45.16354 -100.96056 37963 ft 427 kts 266°
2026-05-07 12:04 45.15439 -101.04364 37969 ft 427 kts 266°
2026-05-07 12:04 45.14520 -101.12672 37972 ft 427 kts 266°
2026-05-07 12:05 45.13600 -101.20926 37975 ft 427 kts 266°
2026-05-07 12:05 45.12665 -101.29221 37970 ft 426 kts 266°
2026-05-07 12:06 45.11723 -101.37517 37968 ft 427 kts 266°
2026-05-07 12:06 45.10780 -101.45816 37979 ft 426 kts 266°
2026-05-07 12:07 45.09829 -101.54108 37972 ft 427 kts 266°
2026-05-07 12:07 45.08873 -101.62342 37938 ft 426 kts 266°
2026-05-07 12:08 45.07905 -101.70621 37958 ft 427 kts 264°
2026-05-07 12:08 45.06333 -101.78794 37965 ft 431 kts 259°
2026-05-07 12:09 45.04658 -101.86937 37976 ft 431 kts 259°
2026-05-07 12:09 45.02973 -101.95082 37937 ft 431 kts 259°
2026-05-07 12:10 45.01293 -102.03220 37958 ft 431 kts 259°
2026-05-07 12:10 44.99610 -102.11354 37969 ft 431 kts 259°
2026-05-07 12:11 44.97918 -102.19483 37972 ft 431 kts 259°
2026-05-07 12:11 44.96221 -102.27603 37970 ft 431 kts 259°
2026-05-07 12:12 44.94512 -102.35726 37940 ft 431 kts 258°
2026-05-07 12:12 44.92802 -102.43841 37958 ft 431 kts 258°
2026-05-07 12:13 44.91089 -102.51944 37958 ft 431 kts 258°
2026-05-07 12:13 44.89366 -102.60050 37955 ft 431 kts 258°
2026-05-07 12:14 44.87638 -102.68136 37933 ft 431 kts 258°
2026-05-07 12:14 44.85909 -102.76228 37932 ft 431 kts 258°
2026-05-07 12:15 44.84178 -102.84272 37948 ft 431 kts 257°
2026-05-07 12:15 44.82430 -102.92358 37951 ft 431 kts 257°
2026-05-07 12:16 44.80678 -103.00435 37960 ft 431 kts 257°
2026-05-07 12:16 44.78923 -103.08516 37940 ft 432 kts 257°
2026-05-07 12:17 44.77155 -103.16608 37949 ft 432 kts 257°
2026-05-07 12:17 44.75377 -103.24695 37955 ft 433 kts 257°
2026-05-07 12:18 44.73595 -103.32784 37962 ft 433 kts 257°
2026-05-07 12:18 44.71813 -103.40867 37938 ft 433 kts 257°
2026-05-07 12:19 44.70032 -103.48915 37951 ft 434 kts 257°
2026-05-07 12:19 44.68227 -103.57007 37954 ft 434 kts 257°
2026-05-07 12:20 44.66418 -103.65107 37953 ft 434 kts 257°
2026-05-07 12:20 44.64602 -103.73208 37939 ft 435 kts 257°
2026-05-07 12:21 44.62777 -103.81301 37945 ft 435 kts 257°
2026-05-07 12:21 44.60947 -103.89398 37946 ft 435 kts 257°
2026-05-07 12:22 44.59115 -103.97490 37952 ft 435 kts 257°
2026-05-07 12:22 44.57269 -104.05588 37945 ft 435 kts 256°
2026-05-07 12:23 44.55418 -104.13667 37905 ft 435 kts 257°
2026-05-07 12:23 44.53576 -104.21702 37914 ft 435 kts 257°
2026-05-07 12:24 44.51721 -104.29776 37930 ft 435 kts 257°
2026-05-07 12:24 44.49854 -104.37841 37929 ft 435 kts 256°
2026-05-07 12:25 44.47986 -104.45897 37923 ft 435 kts 257°
2026-05-07 12:25 44.46111 -104.53960 37931 ft 435 kts 257°
2026-05-07 12:26 44.44228 -104.62013 37944 ft 435 kts 257°
2026-05-07 12:26 44.42334 -104.70065 37957 ft 435 kts 256°
2026-05-07 12:27 44.40439 -104.78110 37946 ft 435 kts 257°
2026-05-07 12:27 44.38547 -104.86141 37951 ft 435 kts 256°
2026-05-07 12:28 44.36653 -104.94119 37944 ft 435 kts 256°
2026-05-07 12:28 44.34745 -105.02140 37959 ft 435 kts 256°
2026-05-07 12:29 44.32835 -105.10160 37905 ft 435 kts 256°
2026-05-07 12:29 44.30918 -105.18175 37939 ft 435 kts 256°
2026-05-07 12:30 44.28997 -105.26182 37913 ft 435 kts 256°
2026-05-07 12:30 44.27056 -105.34182 37919 ft 435 kts 256°
2026-05-07 12:31 44.25118 -105.42185 37890 ft 435 kts 256°
2026-05-07 12:31 44.23172 -105.50175 37878 ft 435 kts 256°
2026-05-07 12:32 44.21219 -105.58171 37869 ft 435 kts 256°
2026-05-07 12:32 44.19269 -105.66154 37871 ft 435 kts 256°
2026-05-07 12:33 44.16327 -105.78122 37843 ft 435 kts 256°
2026-05-07 12:33 44.14350 -105.86097 37855 ft 435 kts 256°
2026-05-07 12:34 44.12376 -105.94073 37868 ft 436 kts 256°
2026-05-07 12:34 44.10401 -106.02041 37871 ft 436 kts 256°
2026-05-07 12:35 44.08432 -106.09957 37884 ft 436 kts 256°
2026-05-07 12:35 44.06444 -106.17923 37854 ft 436 kts 256°
2026-05-07 12:36 44.04443 -106.25881 37868 ft 436 kts 256°
2026-05-07 12:36 44.02435 -106.33837 37870 ft 436 kts 256°
2026-05-07 12:37 44.00414 -106.41799 37876 ft 436 kts 256°
2026-05-07 12:37 43.98334 -106.49718 37856 ft 437 kts 255°
2026-05-07 12:38 43.96121 -106.57584 37871 ft 437 kts 254°
2026-05-07 12:38 43.93886 -106.65427 37884 ft 437 kts 254°
2026-05-07 12:39 43.91689 -106.73211 37896 ft 436 kts 255°
2026-05-07 12:39 43.89489 -106.81041 37869 ft 435 kts 255°
2026-05-07 12:40 43.87293 -106.88849 37905 ft 434 kts 255°
2026-05-07 12:40 43.85094 -106.96636 37911 ft 434 kts 255°
2026-05-07 12:41 43.82898 -107.04407 37929 ft 433 kts 255°
2026-05-07 12:41 43.80690 -107.12166 37907 ft 433 kts 255°
2026-05-07 12:42 43.78475 -107.19920 37932 ft 433 kts 255°
2026-05-07 12:42 43.76256 -107.27671 37954 ft 433 kts 255°
2026-05-07 12:43 43.74391 -107.34161 37950 ft 433 kts 255°
2026-05-07 12:43 43.72172 -107.41864 37963 ft 433 kts 255°
2026-05-07 12:44 43.69946 -107.49599 37960 ft 433 kts 255°
2026-05-07 12:44 43.67708 -107.57315 37973 ft 432 kts 255°
2026-05-07 12:45 43.65466 -107.65007 37977 ft 431 kts 255°
2026-05-07 12:45 43.63232 -107.72680 37979 ft 431 kts 255°
2026-05-07 12:46 43.60988 -107.80355 37960 ft 431 kts 255°
2026-05-07 12:46 43.58733 -107.88028 37978 ft 431 kts 255°
2026-05-07 12:47 43.56473 -107.95696 37965 ft 431 kts 255°
2026-05-07 12:47 43.54213 -108.03366 37967 ft 431 kts 255°
2026-05-07 12:48 43.51961 -108.10987 37978 ft 432 kts 255°
2026-05-07 12:48 43.49684 -108.18650 37966 ft 432 kts 255°
2026-05-07 12:49 43.47403 -108.26311 37979 ft 432 kts 255°
2026-05-07 12:49 43.45139 -108.33977 37980 ft 431 kts 256°
2026-05-07 12:50 43.42977 -108.41667 37981 ft 430 kts 257°
2026-05-07 12:50 43.40845 -108.49358 37959 ft 430 kts 257°
2026-05-07 12:51 43.38704 -108.57002 37971 ft 431 kts 257°
2026-05-07 12:51 43.36513 -108.64731 37980 ft 431 kts 257°
2026-05-07 12:52 43.34331 -108.72365 37982 ft 431 kts 256°
2026-05-07 12:52 43.32138 -108.80035 37955 ft 431 kts 257°
2026-05-07 12:53 43.29946 -108.87693 37980 ft 431 kts 257°
2026-05-07 12:53 43.27750 -108.95346 37986 ft 431 kts 257°
2026-05-07 12:54 43.25549 -109.02983 37991 ft 430 kts 256°
2026-05-07 12:54 43.23335 -109.10623 37990 ft 430 kts 256°
2026-05-07 12:55 43.21124 -109.18257 37946 ft 431 kts 257°
2026-05-07 12:55 43.18906 -109.25904 37979 ft 432 kts 257°
2026-05-07 12:56 43.16666 -109.33565 37993 ft 433 kts 257°
2026-05-07 12:56 43.14420 -109.41230 38023 ft 434 kts 256°
2026-05-07 12:57 43.12176 -109.48907 37989 ft 435 kts 256°
2026-05-07 12:57 43.09923 -109.56567 38017 ft 437 kts 256°
2026-05-07 12:58 43.07637 -109.64293 38035 ft 438 kts 256°
2026-05-07 12:58 43.05343 -109.72013 38051 ft 438 kts 256°
2026-05-07 12:59 43.03050 -109.79724 38058 ft 438 kts 256°
2026-05-07 12:59 43.00754 -109.87452 38031 ft 438 kts 256°
2026-05-07 13:00 42.98452 -109.95164 38053 ft 439 kts 256°
2026-05-07 13:00 42.96142 -110.02878 38066 ft 439 kts 256°
2026-05-07 13:01 42.93837 -110.10547 38062 ft 439 kts 256°
2026-05-07 13:01 42.91516 -110.18251 38037 ft 439 kts 256°
2026-05-07 13:02 42.89183 -110.25971 38042 ft 440 kts 256°
2026-05-07 13:02 42.86845 -110.33691 38061 ft 440 kts 256°
2026-05-07 13:03 42.84495 -110.41403 38056 ft 441 kts 256°
2026-05-07 13:03 42.82144 -110.49124 38021 ft 441 kts 256°
2026-05-07 13:04 42.79787 -110.56850 38028 ft 442 kts 256°
2026-05-07 13:04 42.77411 -110.64588 38099 ft 443 kts 256°
2026-05-07 13:05 42.75029 -110.72319 38132 ft 443 kts 256°
2026-05-07 13:05 42.72640 -110.80060 38169 ft 443 kts 256°
2026-05-07 13:06 42.70246 -110.87784 38145 ft 443 kts 256°
2026-05-07 13:06 42.67860 -110.95465 38148 ft 444 kts 256°
2026-05-07 13:07 42.65446 -111.03207 38160 ft 445 kts 256°
2026-05-07 13:07 42.63031 -111.10938 38137 ft 445 kts 256°
2026-05-07 13:08 42.60612 -111.18672 38085 ft 445 kts 256°
2026-05-07 13:08 42.58179 -111.26410 38078 ft 446 kts 256°
2026-05-07 13:09 42.55732 -111.34149 38066 ft 447 kts 256°
2026-05-07 13:09 42.53281 -111.41897 38045 ft 447 kts 256°
2026-05-07 13:10 42.50829 -111.49631 38059 ft 447 kts 255°
2026-05-07 13:10 42.48371 -111.57366 38053 ft 447 kts 255°
2026-05-07 13:11 42.45921 -111.65081 38055 ft 446 kts 256°
2026-05-07 13:11 42.43464 -111.72798 38048 ft 446 kts 255°
2026-05-07 13:12 42.40997 -111.80494 38011 ft 446 kts 255°
2026-05-07 13:12 42.38517 -111.88184 38035 ft 446 kts 255°
2026-05-07 13:13 42.36045 -111.95832 38045 ft 447 kts 255°
2026-05-07 13:13 42.33541 -112.03578 38050 ft 447 kts 255°
2026-05-07 13:14 42.31060 -112.11217 38045 ft 447 kts 255°
2026-05-07 13:14 42.28560 -112.18906 38020 ft 447 kts 255°
2026-05-07 13:15 42.26055 -112.26611 38022 ft 448 kts 255°
2026-05-07 13:15 42.23537 -112.34302 38027 ft 448 kts 255°
2026-05-07 13:16 42.21006 -112.42001 38029 ft 448 kts 254°
2026-05-07 13:16 42.18464 -112.49689 37995 ft 449 kts 254°
2026-05-07 13:17 42.15878 -112.57364 38022 ft 450 kts 253°
2026-05-07 13:17 42.13267 -112.65037 38031 ft 450 kts 253°
2026-05-07 13:18 42.10654 -112.72704 38008 ft 450 kts 253°
2026-05-07 13:18 42.08046 -112.80365 38003 ft 451 kts 253°
2026-05-07 13:19 42.05430 -112.88035 38009 ft 451 kts 253°
2026-05-07 13:19 42.02813 -112.95705 38019 ft 451 kts 253°
2026-05-07 13:20 42.00179 -113.03368 38022 ft 452 kts 253°
2026-05-07 13:20 41.97538 -113.11031 37996 ft 452 kts 253°
2026-05-07 13:21 41.94892 -113.18686 38003 ft 452 kts 253°
2026-05-07 13:21 41.92256 -113.26288 38004 ft 452 kts 252°
2026-05-07 13:22 41.89605 -113.33920 38001 ft 450 kts 252°
2026-05-07 13:22 41.86954 -113.41544 38003 ft 452 kts 252°
2026-05-07 13:23 41.84293 -113.49184 37990 ft 452 kts 252°
2026-05-07 13:23 41.81624 -113.56816 38000 ft 452 kts 252°
2026-05-07 13:24 41.78949 -113.64444 38023 ft 452 kts 252°
2026-05-07 13:24 41.76266 -113.72073 38025 ft 453 kts 252°
2026-05-07 13:25 41.73576 -113.79700 38030 ft 453 kts 252°
2026-05-07 13:25 41.70883 -113.87326 38031 ft 453 kts 252°
2026-05-07 13:26 41.68181 -113.94940 38040 ft 453 kts 252°
2026-05-07 13:26 41.65467 -114.02546 38032 ft 453 kts 251°
2026-05-07 13:27 41.62750 -114.10148 38016 ft 453 kts 251°
2026-05-07 13:27 41.60033 -114.17756 38016 ft 453 kts 251°
2026-05-07 13:28 41.57325 -114.25314 38023 ft 454 kts 251°
2026-05-07 13:28 41.55039 -114.31683 38025 ft 454 kts 251°
2026-05-07 13:29 41.51858 -114.40510 38008 ft 454 kts 250°
2026-05-07 13:29 41.49567 -114.46836 38017 ft 455 kts 250°
2026-05-07 13:30 41.46814 -114.54432 38029 ft 455 kts 250°
2026-05-07 13:30 41.44049 -114.62035 38036 ft 455 kts 250°
2026-05-07 13:31 41.41281 -114.69625 38039 ft 455 kts 250°
2026-05-07 13:31 41.38515 -114.77225 38060 ft 455 kts 250°
2026-05-07 13:32 41.35748 -114.84814 38066 ft 456 kts 250°
2026-05-07 13:32 41.32965 -114.92391 38067 ft 456 kts 250°
2026-05-07 13:33 41.30169 -114.99967 38072 ft 456 kts 250°
2026-05-07 13:33 41.27375 -115.07528 38051 ft 456 kts 250°
2026-05-07 13:34 41.23179 -115.18869 38064 ft 456 kts 250°
2026-05-07 13:35 41.20391 -115.26373 38074 ft 456 kts 249°
2026-05-07 13:35 41.17574 -115.33925 38075 ft 456 kts 249°
2026-05-07 13:36 41.14752 -115.41486 38080 ft 457 kts 249°
2026-05-07 13:36 41.11928 -115.49040 38085 ft 457 kts 249°
2026-05-07 13:37 41.09092 -115.56593 38106 ft 457 kts 249°
2026-05-07 13:37 41.06250 -115.64146 38093 ft 458 kts 249°
2026-05-07 13:38 41.03386 -115.71717 38118 ft 459 kts 249°
2026-05-07 13:38 41.00523 -115.79270 38140 ft 460 kts 249°
2026-05-07 13:39 40.97648 -115.86844 38157 ft 460 kts 249°
2026-05-07 13:39 40.94768 -115.94407 38161 ft 460 kts 249°
2026-05-07 13:40 40.91910 -116.01922 38141 ft 460 kts 248°
2026-05-07 13:40 40.89031 -116.09477 38136 ft 460 kts 248°
2026-05-07 13:41 40.86136 -116.17026 38129 ft 461 kts 248°
2026-05-07 13:41 40.83232 -116.24572 38112 ft 461 kts 248°
2026-05-07 13:42 40.80324 -116.32118 38102 ft 461 kts 248°
2026-05-07 13:42 40.77412 -116.39650 38109 ft 461 kts 248°
2026-05-07 13:43 40.74497 -116.47180 38118 ft 461 kts 248°
2026-05-07 13:43 40.71582 -116.54699 38134 ft 461 kts 248°
2026-05-07 13:44 40.68652 -116.62208 38135 ft 461 kts 247°
2026-05-07 13:44 40.65722 -116.69717 38163 ft 461 kts 247°
2026-05-07 13:45 40.62787 -116.77231 38187 ft 461 kts 247°
2026-05-07 13:45 40.59846 -116.84732 38188 ft 461 kts 247°
2026-05-07 13:46 40.56950 -116.92249 38171 ft 459 kts 252°
2026-05-07 13:46 40.54855 -117.00120 38179 ft 456 kts 256°
2026-05-07 13:47 40.52819 -117.07955 38160 ft 456 kts 255°
2026-05-07 13:47 40.50755 -117.15839 38132 ft 456 kts 255°
2026-05-07 13:48 40.48688 -117.23727 38063 ft 457 kts 255°
2026-05-07 13:48 40.46611 -117.31614 38069 ft 457 kts 255°
2026-05-07 13:49 40.44527 -117.39503 38072 ft 457 kts 255°
2026-05-07 13:49 40.42440 -117.47392 38074 ft 457 kts 255°
2026-05-07 13:50 40.40344 -117.55272 38063 ft 458 kts 255°
2026-05-07 13:50 40.38245 -117.63158 38072 ft 458 kts 255°
2026-05-07 13:51 40.36143 -117.71033 38069 ft 458 kts 255°
2026-05-07 13:51 40.34045 -117.78858 38072 ft 458 kts 254°
2026-05-07 13:52 40.31923 -117.86741 38073 ft 458 kts 254°
2026-05-07 13:52 40.29800 -117.94619 38074 ft 459 kts 254°
2026-05-07 13:53 40.27671 -118.02500 38079 ft 459 kts 254°
2026-05-07 13:53 40.25535 -118.10376 38071 ft 459 kts 254°
2026-05-07 13:54 40.23385 -118.18246 38072 ft 459 kts 254°
2026-05-07 13:54 40.21231 -118.26112 38076 ft 459 kts 254°
2026-05-07 13:55 40.19076 -118.33975 38081 ft 459 kts 253°
2026-05-07 13:55 40.16914 -118.41832 38070 ft 459 kts 253°
2026-05-07 13:56 40.14749 -118.49689 38073 ft 459 kts 253°
2026-05-07 13:56 40.12590 -118.57497 38079 ft 460 kts 253°
2026-05-07 13:57 40.10327 -118.65316 38082 ft 460 kts 252°
2026-05-07 13:57 40.07960 -118.73091 38076 ft 461 kts 251°
2026-05-07 13:58 40.05577 -118.80876 38127 ft 461 kts 251°
2026-05-07 13:58 40.03218 -118.88652 38110 ft 461 kts 251°
2026-05-07 13:59 40.00873 -118.96434 38070 ft 457 kts 251°
2026-05-07 13:59 39.98568 -119.04043 38069 ft 449 kts 251°
2026-05-07 14:00 39.96271 -119.11598 38078 ft 448 kts 251°
2026-05-07 14:00 39.93985 -119.19087 38083 ft 448 kts 251°
2026-05-07 14:01 39.91672 -119.26625 38070 ft 448 kts 250°
2026-05-07 14:01 39.89354 -119.34162 38073 ft 448 kts 250°
2026-05-07 14:02 39.87033 -119.41699 38076 ft 449 kts 250°
2026-05-07 14:02 39.84707 -119.49237 38102 ft 449 kts 250°
2026-05-07 14:03 39.82374 -119.56770 38129 ft 449 kts 250°
2026-05-07 14:03 39.80035 -119.64313 38162 ft 449 kts 250°
2026-05-07 14:04 39.77692 -119.71841 38199 ft 449 kts 250°
2026-05-07 14:04 39.75339 -119.79364 38242 ft 449 kts 250°
2026-05-07 14:05 39.72988 -119.86887 38240 ft 449 kts 250°
2026-05-07 14:05 39.70625 -119.94403 38239 ft 449 kts 250°
2026-05-07 14:06 39.68256 -120.01909 38088 ft 449 kts 250°
2026-05-07 14:06 39.65890 -120.09415 38091 ft 449 kts 250°
2026-05-07 14:07 39.63519 -120.16915 38090 ft 449 kts 249°
2026-05-07 14:07 39.61142 -120.24410 38088 ft 449 kts 249°
2026-05-07 14:08 39.58754 -120.31905 38077 ft 449 kts 249°
2026-05-07 14:08 39.56377 -120.39342 38080 ft 449 kts 249°
2026-05-07 14:09 39.53982 -120.46826 38071 ft 449 kts 249°
2026-05-07 14:09 39.51590 -120.54303 38077 ft 449 kts 249°
2026-05-07 14:10 39.49192 -120.61771 38082 ft 449 kts 249°
2026-05-07 14:10 39.46779 -120.69233 38081 ft 449 kts 249°
2026-05-07 14:11 39.44366 -120.76694 38096 ft 449 kts 249°
2026-05-07 14:11 39.41945 -120.84149 38099 ft 449 kts 249°
2026-05-07 14:12 39.39524 -120.91598 38098 ft 449 kts 249°
2026-05-07 14:12 39.37092 -120.99035 38180 ft 449 kts 248°
2026-05-07 14:13 39.34660 -121.06463 38190 ft 449 kts 248°
2026-05-07 14:13 39.32100 -121.12278 38189 ft 450 kts 234°
2026-05-07 14:14 39.28341 -121.18752 38181 ft 450 kts 234°
2026-05-07 14:14 39.24582 -121.25219 38134 ft 450 kts 234°
2026-05-07 14:15 39.20821 -121.31671 38147 ft 450 kts 234°
2026-05-07 14:15 39.17071 -121.38120 38152 ft 449 kts 234°
2026-05-07 14:16 39.13317 -121.44555 38147 ft 449 kts 234°
2026-05-07 14:16 39.09560 -121.50969 38159 ft 449 kts 234°
2026-05-07 14:17 39.05792 -121.57373 38157 ft 448 kts 234°
2026-05-07 14:17 39.02027 -121.63758 38162 ft 447 kts 234°
2026-05-07 14:18 38.98297 -121.70098 38161 ft 447 kts 234°
2026-05-07 14:18 38.94548 -121.76481 38160 ft 447 kts 234°
2026-05-07 14:19 38.90788 -121.82839 38144 ft 447 kts 235°
2026-05-07 14:19 38.88872 -121.86070 37868 ft 459 kts 234°
2026-05-07 14:19 38.86925 -121.89353 37595 ft 464 kts 234°
2026-05-07 14:19 38.84963 -121.92651 37298 ft 463 kts 234°
2026-05-07 14:20 38.83016 -121.95925 36569 ft 462 kts 234°
2026-05-07 14:20 38.81071 -121.99198 35826 ft 461 kts 233°
2026-05-07 14:20 38.79155 -122.02411 35364 ft 456 kts 233°
2026-05-07 14:20 38.77229 -122.05637 34598 ft 458 kts 233°
2026-05-07 14:21 38.75300 -122.08871 33999 ft 455 kts 233°
2026-05-07 14:21 38.73385 -122.12076 33467 ft 451 kts 232°
2026-05-07 14:21 38.71491 -122.15249 32945 ft 446 kts 233°
2026-05-07 14:21 38.69614 -122.18393 32412 ft 443 kts 233°
2026-05-07 14:22 38.67750 -122.21514 31890 ft 439 kts 233°
2026-05-07 14:22 38.65900 -122.24609 31369 ft 436 kts 232°
2026-05-07 14:22 38.64063 -122.27674 30857 ft 433 kts 232°
2026-05-07 14:22 38.62237 -122.30715 30351 ft 430 kts 232°
2026-05-07 14:23 38.60421 -122.33739 29792 ft 427 kts 232°
2026-05-07 14:23 38.58619 -122.36730 29308 ft 422 kts 233°
2026-05-07 14:23 38.56835 -122.39686 28823 ft 418 kts 233°
2026-05-07 14:23 38.55061 -122.42605 28358 ft 414 kts 231°
2026-05-07 14:24 38.53063 -122.45221 27898 ft 411 kts 220°
2026-05-07 14:24 38.50858 -122.47523 27399 ft 409 kts 219°
2026-05-07 14:24 38.48658 -122.49795 26907 ft 407 kts 219°
2026-05-07 14:24 38.46465 -122.52053 26564 ft 402 kts 219°
2026-05-07 14:25 38.44292 -122.54289 26157 ft 400 kts 219°
2026-05-07 14:25 38.42134 -122.56514 25753 ft 398 kts 219°
2026-05-07 14:25 38.39980 -122.58733 25363 ft 396 kts 219°
2026-05-07 14:25 38.37874 -122.60905 24975 ft 394 kts 220°
2026-05-07 14:26 38.35759 -122.63081 24362 ft 388 kts 220°
2026-05-07 14:26 38.33669 -122.65226 23588 ft 384 kts 220°
2026-05-07 14:26 38.31605 -122.67344 22894 ft 376 kts 220°
2026-05-07 14:26 38.29576 -122.69427 22444 ft 373 kts 220°
2026-05-07 14:27 38.27562 -122.71496 21982 ft 370 kts 220°
2026-05-07 14:27 38.25481 -122.73408 21533 ft 370 kts 211°
2026-05-07 14:27 38.23139 -122.74745 21071 ft 369 kts 198°
2026-05-07 14:27 38.20635 -122.75411 20613 ft 368 kts 186°
2026-05-07 14:28 38.18082 -122.75392 20163 ft 367 kts 174°
2026-05-07 14:28 38.15576 -122.74768 19697 ft 366 kts 167°
2026-05-07 14:28 38.13105 -122.74046 19299 ft 363 kts 168°
2026-05-07 14:28 38.10649 -122.73332 18819 ft 362 kts 168°
2026-05-07 14:29 38.08197 -122.72623 18407 ft 360 kts 169°
2026-05-07 14:29 38.05775 -122.71923 17925 ft 353 kts 168°
2026-05-07 14:29 38.03397 -122.71234 17235 ft 346 kts 168°
2026-05-07 14:29 38.01070 -122.70560 16810 ft 343 kts 169°
2026-05-07 14:30 37.98781 -122.69896 16388 ft 340 kts 168°
2026-05-07 14:30 37.96481 -122.69228 15964 ft 338 kts 169°
2026-05-07 14:30 37.94199 -122.68566 15544 ft 335 kts 168°
2026-05-07 14:30 37.91933 -122.67876 15131 ft 335 kts 164°
2026-05-07 14:31 37.89781 -122.66762 14724 ft 334 kts 152°
2026-05-07 14:31 37.87868 -122.65141 14481 ft 322 kts 141°
2026-05-07 14:31 37.86214 -122.63363 14215 ft 305 kts 141°
2026-05-07 14:31 37.84610 -122.61654 13707 ft 299 kts 141°
2026-05-07 14:32 37.83025 -122.59975 13176 ft 296 kts 141°
2026-05-07 14:32 37.81445 -122.58307 12766 ft 296 kts 141°
2026-05-07 14:32 37.79869 -122.56644 12329 ft 294 kts 141°
2026-05-07 14:32 37.78294 -122.54983 11891 ft 296 kts 141°
2026-05-07 14:33 37.76707 -122.53311 11532 ft 295 kts 141°
2026-05-07 14:33 37.75135 -122.51651 11156 ft 296 kts 141°
2026-05-07 14:33 37.73573 -122.50001 10983 ft 289 kts 141°
2026-05-07 14:33 37.72025 -122.48364 10573 ft 295 kts 141°
2026-05-07 14:34 37.70446 -122.46683 10293 ft 293 kts 141°
2026-05-07 14:34 37.68913 -122.45045 10128 ft 286 kts 141°
2026-05-07 14:34 37.67401 -122.43432 9843 ft 283 kts 141°
2026-05-07 14:34 37.65926 -122.41861 9347 ft 280 kts 141°
2026-05-07 14:35 37.64443 -122.40287 8756 ft 278 kts 141°
2026-05-07 14:35 37.62969 -122.38722 8184 ft 276 kts 141°
2026-05-07 14:35 37.61536 -122.37127 7608 ft 274 kts 132°
2026-05-07 14:35 37.60608 -122.35049 7061 ft 273 kts 112°
2026-05-07 14:36 37.59863 -122.32845 6489 ft 273 kts 116°
2026-05-07 14:36 37.59032 -122.30697 5824 ft 274 kts 117°
2026-05-07 14:36 37.58156 -122.28543 5116 ft 278 kts 117°
2026-05-07 14:36 37.57263 -122.26375 4374 ft 280 kts 117°
2026-05-07 14:37 37.56368 -122.24190 3660 ft 281 kts 117°
2026-05-07 14:37 37.54689 -122.20034 3167 ft 246 kts 117°
2026-05-07 14:37 37.53955 -122.18196 3059 ft 224 kts 117°
2026-05-07 14:38 37.53403 -122.16466 2972 ft 204 kts 96°
2026-05-07 14:38 37.53627 -122.14747 2935 ft 200 kts 58°
2026-05-07 14:38 37.54556 -122.13765 3742 ft 162 kts 17°
2026-05-07 14:38 37.55643 -122.13463 4349 ft 162 kts
2026-05-07 14:39 37.56754 -122.13756 4126 ft 169 kts 328°
2026-05-07 14:39 37.57572 -122.14867 3535 ft 181 kts 294°
2026-05-07 14:39 37.57758 -122.16434 3065 ft 183 kts 263°
2026-05-07 14:39 37.57570 -122.18035 2687 ft 185 kts 262°
2026-05-07 14:40 37.57387 -122.19607 2402 ft 182 kts 262°
2026-05-07 14:40 37.57205 -122.21177 2128 ft 180 kts 262°
2026-05-07 14:40 37.57025 -122.22727 1876 ft 178 kts 262°
2026-05-07 14:40 37.56882 -122.24275 1797 ft 178 kts 271°
2026-05-07 14:41 37.57169 -122.25778 1752 ft 176 kts 295°
2026-05-07 14:41 37.57709 -122.27060 1602 ft 153 kts 297°
2026-05-07 14:41 37.58183 -122.28179 1404 ft 139 kts 296°
2026-05-07 14:41 37.58629 -122.29236 1230 ft 135 kts 296°
2026-05-07 14:42 37.59065 -122.30270 1046 ft 132 kts 296°
2026-05-07 14:42 37.59498 -122.31299 864 ft 133 kts 297°
2026-05-07 14:42 37.59930 -122.32327 681 ft 132 kts 297°
2026-05-07 14:42 37.60361 -122.33352 497 ft 132 kts 297°
2026-05-07 14:43 37.60784 -122.34375 274 ft 131 kts 297°
2026-05-07 14:43 37.61213 -122.35390 154 ft 131 kts 298°
2026-05-07 14:43 37.61639 -122.36392 26 ft 120 kts 297°
2026-05-07 14:43 37.61955 -122.37149 20 ft 73 kts 298°
2026-05-07 14:44 37.62128 -122.37563 20 ft 45 kts 298°
2026-05-07 14:44 37.62268 -122.37898 21 ft 42 kts 297°
2026-05-07 14:44 37.62384 -122.38157 20 ft 23 kts 315°
2026-05-07 14:44 37.62460 -122.38144 20 ft 9 kts 27°
2026-05-07 14:45 37.62521 -122.38135 20 ft 10 kts 327°
2026-05-07 14:45 37.62559 -122.38217 20 ft 12 kts 297°
2026-05-07 14:45 37.62600 -122.38317 20 ft 14 kts 298°
2026-05-07 14:45 37.62649 -122.38430 22 ft 15 kts 300°
2026-05-07 14:46 37.62722 -122.38431 20 ft 12 kts 37°
2026-05-07 14:46 37.62774 -122.38446 21 ft 1 kts 305°
2026-05-07 14:46 37.62774 -122.38447 21 ft 0 kts 305°